Year,Month,Day,Hour,Minute,Value (Times are PST for temperature in C)
2015,08,17,00,00,14.90
2015,08,17,00,01,14.90
2015,08,17,00,02,14.90
2015,08,17,00,03,14.90
2015,08,17,00,04,14.90
2015,08,17,00,05,14.90
2015,08,17,00,06,14.80
2015,08,17,00,07,14.80
2015,08,17,00,08,14.80
2015,08,17,00,09,14.80
2015,08,17,00,10,14.80
2015,08,17,00,11,14.80
2015,08,17,00,12,14.80
2015,08,17,00,13,14.70
2015,08,17,00,14,14.70
2015,08,17,00,15,14.70
2015,08,17,00,16,14.70
2015,08,17,00,17,14.60
2015,08,17,00,18,14.60
2015,08,17,00,19,14.60
2015,08,17,00,20,14.50
2015,08,17,00,21,14.50
2015,08,17,00,22,14.50
2015,08,17,00,23,14.40
2015,08,17,00,24,14.40
2015,08,17,00,25,14.40
2015,08,17,00,26,14.30
2015,08,17,00,27,14.30
2015,08,17,00,28,14.30
2015,08,17,00,29,14.20
2015,08,17,00,30,14.20
2015,08,17,00,31,14.20
2015,08,17,00,32,14.20
2015,08,17,00,33,14.10
2015,08,17,00,34,14.10
2015,08,17,00,35,14.00
2015,08,17,00,36,14.00
2015,08,17,00,37,13.90
2015,08,17,00,38,13.90
2015,08,17,00,39,13.90
2015,08,17,00,40,13.80
2015,08,17,00,41,13.80
2015,08,17,00,42,13.80
2015,08,17,00,43,13.80
2015,08,17,00,44,13.70
2015,08,17,00,45,13.70
2015,08,17,00,46,13.70
2015,08,17,00,47,13.70
2015,08,17,00,48,13.60
2015,08,17,00,49,13.60
2015,08,17,00,50,13.60
2015,08,17,00,51,13.60
2015,08,17,00,52,13.50
2015,08,17,00,53,13.50
2015,08,17,00,54,13.40
2015,08,17,00,55,13.40
2015,08,17,00,56,13.40
2015,08,17,00,57,13.30
2015,08,17,00,58,13.30
2015,08,17,00,59,13.30
2015,08,17,01,00,13.30
2015,08,17,01,01,13.20
2015,08,17,01,02,13.20
2015,08,17,01,03,13.20
2015,08,17,01,04,13.20
2015,08,17,01,05,13.20
2015,08,17,01,06,13.10
2015,08,17,01,07,13.10
2015,08,17,01,08,13.10
2015,08,17,01,09,13.10
2015,08,17,01,10,13.10
2015,08,17,01,11,13.00
2015,08,17,01,12,13.00
2015,08,17,01,13,13.00
2015,08,17,01,14,13.00
2015,08,17,01,15,12.90
2015,08,17,01,16,12.90
2015,08,17,01,17,12.90
2015,08,17,01,18,12.90
2015,08,17,01,19,12.90
2015,08,17,01,20,12.80
2015,08,17,01,21,12.80
2015,08,17,01,22,12.80
2015,08,17,01,23,12.80
2015,08,17,01,24,12.80
2015,08,17,01,25,12.80
2015,08,17,01,26,12.80
2015,08,17,01,27,12.70
2015,08,17,01,28,12.70
2015,08,17,01,29,12.70
2015,08,17,01,30,12.70
2015,08,17,01,31,12.70
2015,08,17,01,32,12.60
2015,08,17,01,33,12.60
2015,08,17,01,34,12.60
2015,08,17,01,35,12.60
2015,08,17,01,36,12.60
2015,08,17,01,37,12.60
2015,08,17,01,38,12.50
2015,08,17,01,39,12.50
2015,08,17,01,40,12.50
2015,08,17,01,41,12.50
2015,08,17,01,42,12.40
2015,08,17,01,43,12.40
2015,08,17,01,44,12.40
2015,08,17,01,45,12.40
2015,08,17,01,46,12.40
2015,08,17,01,47,12.30
2015,08,17,01,48,12.30
2015,08,17,01,49,12.30
2015,08,17,01,50,12.30
2015,08,17,01,51,12.30
2015,08,17,01,52,12.30
2015,08,17,01,53,12.20
2015,08,17,01,54,12.20
2015,08,17,01,55,12.20
2015,08,17,01,56,12.20
2015,08,17,01,57,12.20
2015,08,17,01,58,12.20
2015,08,17,01,59,12.20
2015,08,17,02,00,12.20
2015,08,17,02,01,12.20
2015,08,17,02,02,12.20
2015,08,17,02,03,12.20
2015,08,17,02,04,12.10
2015,08,17,02,05,12.10
2015,08,17,02,06,12.10
2015,08,17,02,07,12.10
2015,08,17,02,08,12.10
2015,08,17,02,09,12.00
2015,08,17,02,10,12.00
2015,08,17,02,11,12.00
2015,08,17,02,12,12.00
2015,08,17,02,13,11.90
2015,08,17,02,14,11.90
2015,08,17,02,15,11.90
2015,08,17,02,16,11.90
2015,08,17,02,17,11.90
2015,08,17,02,18,11.80
2015,08,17,02,19,11.80
2015,08,17,02,20,11.80
2015,08,17,02,21,11.80
2015,08,17,02,22,11.80
2015,08,17,02,23,11.80
2015,08,17,02,24,11.70
2015,08,17,02,25,11.70
2015,08,17,02,26,11.70
2015,08,17,02,27,11.70
2015,08,17,02,28,11.70
2015,08,17,02,29,11.70
2015,08,17,02,30,11.70
2015,08,17,02,31,11.70
2015,08,17,02,32,11.70
2015,08,17,02,33,11.60
2015,08,17,02,34,11.60
2015,08,17,02,35,11.60
2015,08,17,02,36,11.60
2015,08,17,02,37,11.60
2015,08,17,02,38,11.60
2015,08,17,02,39,11.50
2015,08,17,02,40,11.50
2015,08,17,02,41,11.50
2015,08,17,02,42,11.50
2015,08,17,02,43,11.50
2015,08,17,02,44,11.40
2015,08,17,02,45,11.40
2015,08,17,02,46,11.40
2015,08,17,02,47,11.50
2015,08,17,02,48,11.50
2015,08,17,02,49,11.50
2015,08,17,02,50,11.50
2015,08,17,02,51,11.50
2015,08,17,02,52,11.40
2015,08,17,02,53,11.40
2015,08,17,02,54,11.40
2015,08,17,02,55,11.40
2015,08,17,02,56,11.40
2015,08,17,02,57,11.40
2015,08,17,02,58,11.40
2015,08,17,02,59,11.50
2015,08,17,03,00,11.50
2015,08,17,03,01,11.50
2015,08,17,03,02,11.50
2015,08,17,03,03,11.50
2015,08,17,03,04,11.50
2015,08,17,03,05,11.50
2015,08,17,03,06,11.50
2015,08,17,03,07,11.40
2015,08,17,03,08,11.40
2015,08,17,03,09,11.40
2015,08,17,03,10,11.40
2015,08,17,03,11,11.40
2015,08,17,03,12,11.40
2015,08,17,03,13,11.40
2015,08,17,03,14,11.40
2015,08,17,03,15,11.30
2015,08,17,03,16,11.30
2015,08,17,03,17,11.30
2015,08,17,03,18,11.30
2015,08,17,03,19,11.30
2015,08,17,03,20,11.30
2015,08,17,03,21,11.30
2015,08,17,03,22,11.30
2015,08,17,03,23,11.30
2015,08,17,03,24,11.30
2015,08,17,03,25,11.30
2015,08,17,03,26,11.20
2015,08,17,03,27,11.20
2015,08,17,03,28,11.20
2015,08,17,03,29,11.20
2015,08,17,03,30,11.20
2015,08,17,03,31,11.10
2015,08,17,03,32,11.10
2015,08,17,03,33,11.10
2015,08,17,03,34,11.10
2015,08,17,03,35,11.10
2015,08,17,03,36,11.10
2015,08,17,03,37,11.00
2015,08,17,03,38,11.00
2015,08,17,03,39,11.10
2015,08,17,03,40,11.10
2015,08,17,03,41,11.00
2015,08,17,03,42,11.00
2015,08,17,03,43,11.00
2015,08,17,03,44,11.00
2015,08,17,03,45,11.00
2015,08,17,03,46,11.10
2015,08,17,03,47,11.10
2015,08,17,03,48,11.10
2015,08,17,03,49,11.10
2015,08,17,03,50,11.10
2015,08,17,03,51,11.10
2015,08,17,03,52,11.10
2015,08,17,03,53,11.10
2015,08,17,03,54,11.10
2015,08,17,03,55,11.10
2015,08,17,03,56,11.10
2015,08,17,03,57,11.10
2015,08,17,03,58,11.10
2015,08,17,03,59,11.10
2015,08,17,04,00,11.00
2015,08,17,04,01,11.00
2015,08,17,04,02,11.00
2015,08,17,04,03,11.00
2015,08,17,04,04,11.00
2015,08,17,04,05,10.90
2015,08,17,04,06,10.90
2015,08,17,04,07,10.90
2015,08,17,04,08,10.90
2015,08,17,04,09,10.90
2015,08,17,04,10,10.90
2015,08,17,04,11,10.90
2015,08,17,04,12,10.90
2015,08,17,04,13,10.80
2015,08,17,04,14,10.80
2015,08,17,04,15,10.80
2015,08,17,04,16,10.80
2015,08,17,04,17,10.80
2015,08,17,04,18,10.80
2015,08,17,04,19,10.70
2015,08,17,04,20,10.70
2015,08,17,04,21,10.70
2015,08,17,04,22,10.70
2015,08,17,04,23,10.70
2015,08,17,04,24,10.70
2015,08,17,04,25,10.60
2015,08,17,04,26,10.60
2015,08,17,04,27,10.60
2015,08,17,04,28,10.60
2015,08,17,04,29,10.60
2015,08,17,04,30,10.60
2015,08,17,04,31,10.60
2015,08,17,04,32,10.60
2015,08,17,04,33,10.50
2015,08,17,04,34,10.50
2015,08,17,04,35,10.50
2015,08,17,04,36,10.50
2015,08,17,04,37,10.40
2015,08,17,04,38,10.40
2015,08,17,04,39,10.40
2015,08,17,04,40,10.40
2015,08,17,04,41,10.40
2015,08,17,04,42,10.40
2015,08,17,04,43,10.40
2015,08,17,04,44,10.40
2015,08,17,04,45,10.40
2015,08,17,04,46,10.40
2015,08,17,04,47,10.40
2015,08,17,04,48,10.40
2015,08,17,04,49,10.40
2015,08,17,04,50,10.40
2015,08,17,04,51,10.40
2015,08,17,04,52,10.40
2015,08,17,04,53,10.40
2015,08,17,04,54,10.40
2015,08,17,04,55,10.40
2015,08,17,04,56,10.40
2015,08,17,04,57,10.40
2015,08,17,04,58,10.40
2015,08,17,04,59,10.40
2015,08,17,05,00,10.40
2015,08,17,05,01,10.40
2015,08,17,05,02,10.40
2015,08,17,05,03,10.40
2015,08,17,05,04,10.40
2015,08,17,05,05,10.40
2015,08,17,05,06,10.40
2015,08,17,05,07,10.40
2015,08,17,05,08,10.40
2015,08,17,05,09,10.40
2015,08,17,05,10,10.40
2015,08,17,05,11,10.40
2015,08,17,05,12,10.40
2015,08,17,05,13,10.40
2015,08,17,05,14,10.40
2015,08,17,05,15,10.40
2015,08,17,05,16,10.30
2015,08,17,05,17,10.30
2015,08,17,05,18,10.30
2015,08,17,05,19,10.30
2015,08,17,05,20,10.30
2015,08,17,05,21,10.30
2015,08,17,05,22,10.30
2015,08,17,05,23,10.30
2015,08,17,05,24,10.30
2015,08,17,05,25,10.30
2015,08,17,05,26,10.30
2015,08,17,05,27,10.30
2015,08,17,05,28,10.30
2015,08,17,05,29,10.30
2015,08,17,05,30,10.30
2015,08,17,05,31,10.30
2015,08,17,05,32,10.30
2015,08,17,05,33,10.30
2015,08,17,05,34,10.20
2015,08,17,05,35,10.20
2015,08,17,05,36,10.20
2015,08,17,05,37,10.20
2015,08,17,05,38,10.20
2015,08,17,05,39,10.20
2015,08,17,05,40,10.20
2015,08,17,05,41,10.20
2015,08,17,05,42,10.20
2015,08,17,05,43,10.20
2015,08,17,05,44,10.20
2015,08,17,05,45,10.20
2015,08,17,05,46,10.20
2015,08,17,05,47,10.20
2015,08,17,05,48,10.20
2015,08,17,05,49,10.20
2015,08,17,05,50,10.20
2015,08,17,05,51,10.20
2015,08,17,05,52,10.20
2015,08,17,05,53,10.20
2015,08,17,05,54,10.20
2015,08,17,05,55,10.20
2015,08,17,05,56,10.20
2015,08,17,05,57,10.20
2015,08,17,05,58,10.20
2015,08,17,05,59,10.20
2015,08,17,06,00,10.20
2015,08,17,06,01,10.20
2015,08,17,06,02,10.20
2015,08,17,06,03,10.20
2015,08,17,06,04,10.20
2015,08,17,06,05,10.20
2015,08,17,06,06,10.20
2015,08,17,06,07,10.20
2015,08,17,06,08,10.20
2015,08,17,06,09,10.20
2015,08,17,06,10,10.20
2015,08,17,06,11,10.20
2015,08,17,06,12,10.20
2015,08,17,06,13,10.20
2015,08,17,06,14,10.20
2015,08,17,06,15,10.20
2015,08,17,06,16,10.30
2015,08,17,06,17,10.30
2015,08,17,06,18,10.20
2015,08,17,06,19,10.20
2015,08,17,06,20,10.20
2015,08,17,06,21,10.20
2015,08,17,06,22,10.20
2015,08,17,06,23,10.20
2015,08,17,06,24,10.20
2015,08,17,06,25,10.20
2015,08,17,06,26,10.10
2015,08,17,06,27,10.10
2015,08,17,06,28,10.10
2015,08,17,06,29,10.10
2015,08,17,06,30,10.10
2015,08,17,06,31,10.00
2015,08,17,06,32,10.00
2015,08,17,06,33,10.10
2015,08,17,06,34,10.10
2015,08,17,06,35,10.10
2015,08,17,06,36,10.10
2015,08,17,06,37,10.10
2015,08,17,06,38,10.10
2015,08,17,06,39,10.10
2015,08,17,06,40,10.10
2015,08,17,06,41,10.20
2015,08,17,06,42,10.20
2015,08,17,06,43,10.20
2015,08,17,06,44,10.30
2015,08,17,06,45,10.30
2015,08,17,06,46,10.30
2015,08,17,06,47,10.30
2015,08,17,06,48,10.40
2015,08,17,06,49,10.40
2015,08,17,06,50,10.40
2015,08,17,06,51,10.40
2015,08,17,06,52,10.40
2015,08,17,06,53,10.40
2015,08,17,06,54,10.50
2015,08,17,06,55,10.50
2015,08,17,06,56,10.50
2015,08,17,06,57,10.60
2015,08,17,06,58,10.60
2015,08,17,06,59,10.60
2015,08,17,07,00,10.70
2015,08,17,07,01,10.70
2015,08,17,07,02,10.70
2015,08,17,07,03,10.80
2015,08,17,07,04,10.80
2015,08,17,07,05,10.80
2015,08,17,07,06,10.90
2015,08,17,07,07,10.90
2015,08,17,07,08,10.90
2015,08,17,07,09,11.00
2015,08,17,07,10,11.00
2015,08,17,07,11,11.10
2015,08,17,07,12,11.10
2015,08,17,07,13,11.20
2015,08,17,07,14,11.20
2015,08,17,07,15,11.20
2015,08,17,07,16,11.20
2015,08,17,07,17,11.20
2015,08,17,07,18,11.30
2015,08,17,07,19,11.30
2015,08,17,07,20,11.30
2015,08,17,07,21,11.30
2015,08,17,07,22,11.30
2015,08,17,07,23,11.40
2015,08,17,07,24,11.40
2015,08,17,07,25,11.40
2015,08,17,07,26,11.50
2015,08,17,07,27,11.50
2015,08,17,07,28,11.60
2015,08,17,07,29,11.60
2015,08,17,07,30,11.70
2015,08,17,07,31,11.70
2015,08,17,07,32,11.80
2015,08,17,07,33,11.90
2015,08,17,07,34,12.00
2015,08,17,07,35,12.10
2015,08,17,07,36,12.20
2015,08,17,07,37,12.30
2015,08,17,07,38,12.30
2015,08,17,07,39,12.40
2015,08,17,07,40,12.50
2015,08,17,07,41,12.60
2015,08,17,07,42,12.70
2015,08,17,07,43,12.70
2015,08,17,07,44,12.80
2015,08,17,07,45,12.90
2015,08,17,07,46,12.90
2015,08,17,07,47,13.00
2015,08,17,07,48,13.10
2015,08,17,07,49,13.20
2015,08,17,07,50,13.30
2015,08,17,07,51,13.40
2015,08,17,07,52,13.60
2015,08,17,07,53,13.70
2015,08,17,07,54,13.80
2015,08,17,07,55,13.90
2015,08,17,07,56,14.00
2015,08,17,07,57,14.10
2015,08,17,07,58,14.20
2015,08,17,07,59,14.30
2015,08,17,08,00,14.40
2015,08,17,08,01,14.50
2015,08,17,08,02,14.50
2015,08,17,08,03,14.60
2015,08,17,08,04,14.70
2015,08,17,08,05,14.70
2015,08,17,08,06,14.80
2015,08,17,08,07,14.90
2015,08,17,08,08,15.00
2015,08,17,08,09,15.00
2015,08,17,08,10,15.10
2015,08,17,08,11,15.20
2015,08,17,08,12,15.20
2015,08,17,08,13,15.30
2015,08,17,08,14,15.30
2015,08,17,08,15,15.30
2015,08,17,08,16,15.40
2015,08,17,08,17,15.50
2015,08,17,08,18,15.50
2015,08,17,08,19,15.60
2015,08,17,08,20,15.70
2015,08,17,08,21,15.70
2015,08,17,08,22,15.80
2015,08,17,08,23,15.80
2015,08,17,08,24,15.80
2015,08,17,08,25,15.90
2015,08,17,08,26,15.90
2015,08,17,08,27,16.00
2015,08,17,08,28,16.10
2015,08,17,08,29,16.10
2015,08,17,08,30,16.20
2015,08,17,08,31,16.30
2015,08,17,08,32,16.40
2015,08,17,08,33,16.50
2015,08,17,08,34,16.70
2015,08,17,08,35,16.80
2015,08,17,08,36,16.90
2015,08,17,08,37,17.00
2015,08,17,08,38,17.10
2015,08,17,08,39,17.20
2015,08,17,08,40,17.30
2015,08,17,08,41,17.30
2015,08,17,08,42,17.40
2015,08,17,08,43,17.40
2015,08,17,08,44,17.50
2015,08,17,08,45,17.50
2015,08,17,08,46,17.60
2015,08,17,08,47,17.60
2015,08,17,08,48,17.70
2015,08,17,08,49,17.70
2015,08,17,08,50,17.70
2015,08,17,08,51,17.80
2015,08,17,08,52,17.80
2015,08,17,08,53,17.90
2015,08,17,08,54,17.90
2015,08,17,08,55,17.90
2015,08,17,08,56,17.90
2015,08,17,08,57,17.90
2015,08,17,08,58,17.90
2015,08,17,08,59,18.00
2015,08,17,09,00,18.00
2015,08,17,09,01,18.10
2015,08,17,09,02,18.10
2015,08,17,09,03,18.20
2015,08,17,09,04,18.20
2015,08,17,09,05,18.30
2015,08,17,09,06,18.30
2015,08,17,09,07,18.30
2015,08,17,09,08,18.40
2015,08,17,09,09,18.40
2015,08,17,09,10,18.50
2015,08,17,09,11,18.50
2015,08,17,09,12,18.60
2015,08,17,09,13,18.70
2015,08,17,09,14,18.70
2015,08,17,09,15,18.70
2015,08,17,09,16,18.80
2015,08,17,09,17,18.80
2015,08,17,09,18,18.80
2015,08,17,09,19,18.80
2015,08,17,09,20,18.80
2015,08,17,09,21,18.90
2015,08,17,09,22,18.90
2015,08,17,09,23,18.90
2015,08,17,09,24,18.90
2015,08,17,09,25,18.90
2015,08,17,09,26,19.00
2015,08,17,09,27,19.00
2015,08,17,09,28,19.10
2015,08,17,09,29,19.00
2015,08,17,09,30,19.00
2015,08,17,09,31,19.00
2015,08,17,09,32,19.00
2015,08,17,09,33,19.10
2015,08,17,09,34,19.10
2015,08,17,09,35,19.20
2015,08,17,09,36,19.20
2015,08,17,09,37,19.30
2015,08,17,09,38,19.40
2015,08,17,09,39,19.40
2015,08,17,09,40,19.40
2015,08,17,09,41,19.50
2015,08,17,09,42,19.50
2015,08,17,09,43,19.40
2015,08,17,09,44,19.40
2015,08,17,09,45,19.50
2015,08,17,09,46,19.50
2015,08,17,09,47,19.50
2015,08,17,09,48,19.50
2015,08,17,09,49,19.50
2015,08,17,09,50,19.50
2015,08,17,09,51,19.50
2015,08,17,09,52,19.50
2015,08,17,09,53,19.40
2015,08,17,09,54,19.40
2015,08,17,09,55,19.40
2015,08,17,09,56,19.40
2015,08,17,09,57,19.40
2015,08,17,09,58,19.40
2015,08,17,09,59,19.40
2015,08,17,10,00,19.40
2015,08,17,10,01,19.40
2015,08,17,10,02,19.40
2015,08,17,10,03,19.40
2015,08,17,10,04,19.50
2015,08,17,10,05,19.50
2015,08,17,10,06,19.60
2015,08,17,10,07,19.60
2015,08,17,10,08,19.60
2015,08,17,10,09,19.70
2015,08,17,10,10,19.70
2015,08,17,10,11,19.70
2015,08,17,10,12,19.70
2015,08,17,10,13,19.70
2015,08,17,10,14,19.60
2015,08,17,10,15,19.60
2015,08,17,10,16,19.60
2015,08,17,10,17,19.70
2015,08,17,10,18,19.70
2015,08,17,10,19,19.80
2015,08,17,10,20,19.80
2015,08,17,10,21,19.80
2015,08,17,10,22,19.90
2015,08,17,10,23,19.90
2015,08,17,10,24,19.90
2015,08,17,10,25,19.90
2015,08,17,10,26,19.90
2015,08,17,10,27,19.90
2015,08,17,10,28,19.90
2015,08,17,10,29,19.90
2015,08,17,10,30,19.90
2015,08,17,10,31,19.90
2015,08,17,10,32,19.90
2015,08,17,10,33,19.90
2015,08,17,10,34,19.90
2015,08,17,10,35,19.90
2015,08,17,10,36,19.90
2015,08,17,10,37,19.90
2015,08,17,10,38,19.90
2015,08,17,10,39,19.80
2015,08,17,10,40,19.80
2015,08,17,10,41,19.80
2015,08,17,10,42,19.80
2015,08,17,10,43,19.80
2015,08,17,10,44,19.80
2015,08,17,10,45,19.90
2015,08,17,10,46,19.90
2015,08,17,10,47,19.90
2015,08,17,10,48,19.90
2015,08,17,10,49,19.90
2015,08,17,10,50,19.90
2015,08,17,10,51,20.00
2015,08,17,10,52,20.10
2015,08,17,10,53,20.10
2015,08,17,10,54,20.20
2015,08,17,10,55,20.20
2015,08,17,10,56,20.20
2015,08,17,10,57,20.30
2015,08,17,10,58,20.30
2015,08,17,10,59,20.40
2015,08,17,11,00,20.50
2015,08,17,11,01,20.60
2015,08,17,11,02,20.60
2015,08,17,11,03,20.70
2015,08,17,11,04,20.70
2015,08,17,11,05,20.70
2015,08,17,11,06,20.80
2015,08,17,11,07,20.80
2015,08,17,11,08,20.80
2015,08,17,11,09,20.90
2015,08,17,11,10,20.90
2015,08,17,11,11,20.90
2015,08,17,11,12,20.90
2015,08,17,11,13,20.90
2015,08,17,11,14,20.90
2015,08,17,11,15,20.90
2015,08,17,11,16,20.90
2015,08,17,11,17,20.90
2015,08,17,11,18,20.90
2015,08,17,11,19,20.90
2015,08,17,11,20,20.80
2015,08,17,11,21,20.80
2015,08,17,11,22,20.80
2015,08,17,11,23,20.80
2015,08,17,11,24,20.80
2015,08,17,11,25,20.80
2015,08,17,11,26,20.80
2015,08,17,11,27,20.80
2015,08,17,11,28,20.80
2015,08,17,11,29,20.80
2015,08,17,11,30,20.90
2015,08,17,11,31,20.90
2015,08,17,11,32,20.90
2015,08,17,11,33,20.90
2015,08,17,11,34,21.00
2015,08,17,11,35,21.00
2015,08,17,11,36,21.00
2015,08,17,11,37,21.00
2015,08,17,11,38,21.00
2015,08,17,11,39,21.10
2015,08,17,11,40,21.10
2015,08,17,11,41,21.10
2015,08,17,11,42,21.10
2015,08,17,11,43,21.00
2015,08,17,11,44,20.90
2015,08,17,11,45,20.80
2015,08,17,11,46,20.70
2015,08,17,11,47,20.50
2015,08,17,11,48,20.40
2015,08,17,11,49,20.20
2015,08,17,11,50,20.10
2015,08,17,11,51,20.00
2015,08,17,11,52,19.90
2015,08,17,11,53,19.90
2015,08,17,11,54,19.90
2015,08,17,11,55,19.90
2015,08,17,11,56,20.00
2015,08,17,11,57,20.00
2015,08,17,11,58,20.10
2015,08,17,11,59,20.10
2015,08,17,12,00,20.20
2015,08,17,12,01,20.20
2015,08,17,12,02,20.20
2015,08,17,12,03,20.30
2015,08,17,12,04,20.30
2015,08,17,12,05,20.30
2015,08,17,12,06,20.40
2015,08,17,12,07,20.40
2015,08,17,12,08,20.50
2015,08,17,12,09,20.60
2015,08,17,12,10,20.60
2015,08,17,12,11,20.70
2015,08,17,12,12,20.70
2015,08,17,12,13,20.80
2015,08,17,12,14,20.80
2015,08,17,12,15,20.80
2015,08,17,12,16,20.90
2015,08,17,12,17,20.90
2015,08,17,12,18,21.00
2015,08,17,12,19,21.00
2015,08,17,12,20,21.10
2015,08,17,12,21,21.10
2015,08,17,12,22,21.10
2015,08,17,12,23,21.20
2015,08,17,12,24,21.30
2015,08,17,12,25,21.30
2015,08,17,12,26,21.30
2015,08,17,12,27,21.40
2015,08,17,12,28,21.40
2015,08,17,12,29,21.50
2015,08,17,12,30,21.50
2015,08,17,12,31,21.60
2015,08,17,12,32,21.60
2015,08,17,12,33,21.60
2015,08,17,12,34,21.60
2015,08,17,12,35,21.60
2015,08,17,12,36,21.70
2015,08,17,12,37,21.70
2015,08,17,12,38,21.70
2015,08,17,12,39,21.70
2015,08,17,12,40,21.60
2015,08,17,12,41,21.60
2015,08,17,12,42,21.60
2015,08,17,12,43,21.60
2015,08,17,12,44,21.60
2015,08,17,12,45,21.60
2015,08,17,12,46,21.50
2015,08,17,12,47,21.50
2015,08,17,12,48,21.40
2015,08,17,12,49,21.40
2015,08,17,12,50,21.40
2015,08,17,12,51,21.40
2015,08,17,12,52,21.40
2015,08,17,12,53,21.40
2015,08,17,12,54,21.40
2015,08,17,12,55,21.40
2015,08,17,12,56,21.30
2015,08,17,12,57,21.30
2015,08,17,12,58,21.20
2015,08,17,12,59,21.20
2015,08,17,13,00,21.10
2015,08,17,13,01,21.00
2015,08,17,13,02,20.90
2015,08,17,13,03,20.90
2015,08,17,13,04,20.80
2015,08,17,13,05,20.80
2015,08,17,13,06,20.80
2015,08,17,13,07,20.70
2015,08,17,13,08,20.60
2015,08,17,13,09,20.50
2015,08,17,13,10,20.50
2015,08,17,13,11,20.40
2015,08,17,13,12,20.40
2015,08,17,13,13,20.30
2015,08,17,13,14,20.40
2015,08,17,13,15,20.40
2015,08,17,13,16,20.40
2015,08,17,13,17,20.40
2015,08,17,13,18,20.40
2015,08,17,13,19,20.50
2015,08,17,13,20,20.50
2015,08,17,13,21,20.50
2015,08,17,13,22,20.50
2015,08,17,13,23,20.50
2015,08,17,13,24,20.50
2015,08,17,13,25,20.50
2015,08,17,13,26,20.50
2015,08,17,13,27,20.60
2015,08,17,13,28,20.60
2015,08,17,13,29,20.60
2015,08,17,13,30,20.70
2015,08,17,13,31,20.80
2015,08,17,13,32,20.90
2015,08,17,13,33,20.90
2015,08,17,13,34,21.00
2015,08,17,13,35,21.10
2015,08,17,13,36,21.10
2015,08,17,13,37,21.10
2015,08,17,13,38,21.00
2015,08,17,13,39,21.00
2015,08,17,13,40,20.90
2015,08,17,13,41,20.90
2015,08,17,13,42,20.90
2015,08,17,13,43,21.00
2015,08,17,13,44,21.00
2015,08,17,13,45,21.10
2015,08,17,13,46,21.20
2015,08,17,13,47,21.30
2015,08,17,13,48,21.30
2015,08,17,13,49,21.30
2015,08,17,13,50,21.40
2015,08,17,13,51,21.30
2015,08,17,13,52,21.40
2015,08,17,13,53,21.40
2015,08,17,13,54,21.30
2015,08,17,13,55,21.30
2015,08,17,13,56,21.20
2015,08,17,13,57,21.10
2015,08,17,13,58,21.00
2015,08,17,13,59,21.00
2015,08,17,14,00,20.90
2015,08,17,14,01,20.90
2015,08,17,14,02,21.00
2015,08,17,14,03,21.00
2015,08,17,14,04,21.00
2015,08,17,14,05,21.10
2015,08,17,14,06,21.10
2015,08,17,14,07,21.10
2015,08,17,14,08,21.20
2015,08,17,14,09,21.20
2015,08,17,14,10,21.10
2015,08,17,14,11,21.10
2015,08,17,14,12,21.00
2015,08,17,14,13,21.00
2015,08,17,14,14,20.90
2015,08,17,14,15,20.90
2015,08,17,14,16,20.90
2015,08,17,14,17,20.90
2015,08,17,14,18,21.00
2015,08,17,14,19,21.00
2015,08,17,14,20,21.10
2015,08,17,14,21,21.20
2015,08,17,14,22,21.30
2015,08,17,14,23,21.30
2015,08,17,14,24,21.40
2015,08,17,14,25,21.40
2015,08,17,14,26,21.50
2015,08,17,14,27,21.50
2015,08,17,14,28,21.50
2015,08,17,14,29,21.60
2015,08,17,14,30,21.60
2015,08,17,14,31,21.70
2015,08,17,14,32,21.70
2015,08,17,14,33,21.70
2015,08,17,14,34,21.80
2015,08,17,14,35,21.80
2015,08,17,14,36,21.90
2015,08,17,14,37,22.00
2015,08,17,14,38,22.00
2015,08,17,14,39,22.10
2015,08,17,14,40,22.10
2015,08,17,14,41,22.20
2015,08,17,14,42,22.20
2015,08,17,14,43,22.20
2015,08,17,14,44,22.30
2015,08,17,14,45,22.30
2015,08,17,14,46,22.40
2015,08,17,14,47,22.50
2015,08,17,14,48,22.50
2015,08,17,14,49,22.60
2015,08,17,14,50,22.60
2015,08,17,14,51,22.70
2015,08,17,14,52,22.70
2015,08,17,14,53,22.60
2015,08,17,14,54,22.50
2015,08,17,14,55,22.40
2015,08,17,14,56,22.30
2015,08,17,14,57,22.30
2015,08,17,14,58,22.20
2015,08,17,14,59,22.20
2015,08,17,15,00,22.20
2015,08,17,15,01,22.20
2015,08,17,15,02,22.30
2015,08,17,15,03,22.30
2015,08,17,15,04,22.30
2015,08,17,15,05,22.30
2015,08,17,15,06,22.30
2015,08,17,15,07,22.30
2015,08,17,15,08,22.20
2015,08,17,15,09,22.20
2015,08,17,15,10,22.10
2015,08,17,15,11,22.00
2015,08,17,15,12,21.90
2015,08,17,15,13,21.90
2015,08,17,15,14,21.90
2015,08,17,15,15,22.00
2015,08,17,15,16,22.00
2015,08,17,15,17,22.10
2015,08,17,15,18,22.10
2015,08,17,15,19,22.20
2015,08,17,15,20,22.30
2015,08,17,15,21,22.40
2015,08,17,15,22,22.50
2015,08,17,15,23,22.60
2015,08,17,15,24,22.50
2015,08,17,15,25,22.40
2015,08,17,15,26,22.30
2015,08,17,15,27,22.20
2015,08,17,15,28,22.20
2015,08,17,15,29,22.10
2015,08,17,15,30,21.90
2015,08,17,15,31,21.80
2015,08,17,15,32,21.80
2015,08,17,15,33,21.70
2015,08,17,15,34,21.70
2015,08,17,15,35,21.70
2015,08,17,15,36,21.70
2015,08,17,15,37,21.70
2015,08,17,15,38,21.70
2015,08,17,15,39,21.70
2015,08,17,15,40,21.70
2015,08,17,15,41,21.70
2015,08,17,15,42,21.70
2015,08,17,15,43,21.70
2015,08,17,15,44,21.60
2015,08,17,15,45,21.60
2015,08,17,15,46,21.60
2015,08,17,15,47,21.60
2015,08,17,15,48,21.70
2015,08,17,15,49,21.80
2015,08,17,15,50,21.90
2015,08,17,15,51,22.10
2015,08,17,15,52,22.20
2015,08,17,15,53,22.30
2015,08,17,15,54,22.50
2015,08,17,15,55,22.60
2015,08,17,15,56,22.70
2015,08,17,15,57,22.70
2015,08,17,15,58,22.70
2015,08,17,15,59,22.60
2015,08,17,16,00,22.50
2015,08,17,16,01,22.40
2015,08,17,16,02,22.30
2015,08,17,16,03,22.30
2015,08,17,16,04,22.30
2015,08,17,16,05,22.30
2015,08,17,16,06,22.30
2015,08,17,16,07,22.40
2015,08,17,16,08,22.40
2015,08,17,16,09,22.50
2015,08,17,16,10,22.50
2015,08,17,16,11,22.60
2015,08,17,16,12,22.60
2015,08,17,16,13,22.60
2015,08,17,16,14,22.60
2015,08,17,16,15,22.50
2015,08,17,16,16,22.40
2015,08,17,16,17,22.40
2015,08,17,16,18,22.30
2015,08,17,16,19,22.20
2015,08,17,16,20,22.10
2015,08,17,16,21,22.00
2015,08,17,16,22,21.90
2015,08,17,16,23,21.80
2015,08,17,16,24,21.80
2015,08,17,16,25,21.80
2015,08,17,16,26,21.70
2015,08,17,16,27,21.70
2015,08,17,16,28,21.70
2015,08,17,16,29,21.80
2015,08,17,16,30,21.80
2015,08,17,16,31,21.90
2015,08,17,16,32,21.90
2015,08,17,16,33,21.90
2015,08,17,16,34,22.00
2015,08,17,16,35,22.00
2015,08,17,16,36,22.10
2015,08,17,16,37,22.10
2015,08,17,16,38,22.20
2015,08,17,16,39,22.20
2015,08,17,16,40,22.20
2015,08,17,16,41,22.20
2015,08,17,16,42,22.30
2015,08,17,16,43,22.30
2015,08,17,16,44,22.30
2015,08,17,16,45,22.20
2015,08,17,16,46,22.20
2015,08,17,16,47,22.20
2015,08,17,16,48,22.10
2015,08,17,16,49,22.10
2015,08,17,16,50,22.00
2015,08,17,16,51,22.00
2015,08,17,16,52,22.00
2015,08,17,16,53,21.90
2015,08,17,16,54,21.90
2015,08,17,16,55,21.90
2015,08,17,16,56,21.90
2015,08,17,16,57,21.90
2015,08,17,16,58,21.90
2015,08,17,16,59,21.90
2015,08,17,17,00,21.80
2015,08,17,17,01,21.90
2015,08,17,17,02,22.00
2015,08,17,17,03,22.00
2015,08,17,17,04,22.10
2015,08,17,17,05,22.10
2015,08,17,17,06,22.10
2015,08,17,17,07,22.10
2015,08,17,17,08,22.10
2015,08,17,17,09,22.20
2015,08,17,17,10,22.20
2015,08,17,17,11,22.10
2015,08,17,17,12,22.10
2015,08,17,17,13,22.10
2015,08,17,17,14,22.10
2015,08,17,17,15,22.10
2015,08,17,17,16,22.10
2015,08,17,17,17,22.10
2015,08,17,17,18,22.10
2015,08,17,17,19,22.20